Benson, MN

6:08 PM CDT on July 29, 2016 (GMT -0500)
Benson Municipal

Weather History for KBBB - March, 2013

Change the Weather History Date:

Sunday, March 31, 2013

  Actual Average Record
Temperature  
Mean Temperature 26 °F -  
Max Temperature 33 °F 48 °F 78 °F (1963)
Min Temperature 19 °F 27 °F -3 °F (1969)
Degree Days  
Heating Degree Days 39    
Moisture  
Dew Point 23 °F    
Average Humidity 79    
Maximum Humidity 100    
Minimum Humidity 64    
Precipitation  
Precipitation 0.00 in - - ()
Sea Level Pressure  
Sea Level Pressure 29.99 in    
Wind  
Wind Speed 15 mph (North)    
Max Wind Speed 31 mph    
Max Gust Speed 39 mph    
Visibility 9 miles    
Events      
Averages and records for this station are not official NWS values.
T = Trace of Precipitation, MM = Missing Value Source: NWS Daily Summary

Daily Weather History Graph

Daily Weather History Graph

Search for Another Location

Airport or City:

Trip Planner

Search our weather history database for the weather conditions in past years. The results will help you decide how hot, cold, wet, or windy it might be!

Date:

Astronomy

Mar. 31, 2013 Rise Set
Actual Time 7:04 AM CDT 7:49 PM CDT
Civil Twilight 6:34 AM CDT 8:19 PM CDT
Nautical Twilight 5:59 AM CDT 8:55 PM CDT
Astronomical Twilight 5:22 AM CDT 9:32 PM CDT
Moon 12:08 AM CDT (3/31) 9:40 AM CDT (3/31)
Length of Visible Light 13h 45m
Length of Day
12h 45m
Waning Gibbous, 77% of the Moon is Illuminated
Mar 31
Waning Gibbous
Apr 2
Last Quarter
Apr 10
New
Apr 18
First Quarter
Apr 25
Full

Hourly Weather History & Observations

Time (CDT) Temp. Windchill Dew Point Humidity Pressure Visibility Wind Dir Wind Speed Gust Speed Precip Events Conditions
12:12 AM 33.8 °F 26.4 °F 32.0 °F 93% 29.92 in 1.8 mi NW 9.2 mph - N/A   Overcast
12:33 AM 33.8 °F 27.0 °F 33.8 °F 100% 29.91 in 2.0 mi NW 8.1 mph - N/A   Overcast
12:52 AM 33.8 °F 27.0 °F 33.8 °F 100% 29.90 in 3.0 mi NW 8.1 mph - N/A   Overcast
1:12 AM 33.8 °F 26.4 °F 33.8 °F 100% 29.91 in 4.0 mi NNW 9.2 mph - N/A   Overcast
1:33 AM 33.8 °F 26.4 °F 32.0 °F 93% 29.90 in 5.0 mi NW 9.2 mph - N/A   Overcast
1:52 AM 33.8 °F 26.4 °F 32.0 °F 93% 29.91 in 5.0 mi NW 9.2 mph 16.1 mph N/A   Overcast
2:13 AM 32.0 °F 24.8 °F 30.2 °F 93% 29.90 in 4.0 mi NW 8.1 mph - N/A   Mostly Cloudy
2:33 AM 30.2 °F 24.3 °F 30.2 °F 100% 29.90 in 4.0 mi NW 5.8 mph - N/A   Scattered Clouds
2:52 AM 30.2 °F 26.7 °F 30.2 °F 100% 29.89 in 5.0 mi NNW 3.5 mph - N/A   Clear
3:13 AM 30.2 °F - 28.4 °F 93% 29.88 in 7.0 mi Calm Calm - N/A   Scattered Clouds
3:32 AM 32.0 °F 26.4 °F 30.2 °F 93% 29.87 in 7.0 mi NW 5.8 mph - N/A   Mostly Cloudy
3:52 AM 33.8 °F 27.0 °F 30.2 °F 87% 29.86 in 7.0 mi NW 8.1 mph - N/A   Overcast
4:13 AM 33.8 °F 23.9 °F 30.2 °F 87% 29.85 in 10.0 mi NW 15.0 mph - N/A   Overcast
4:32 AM 33.8 °F 22.2 °F 30.2 °F 87% 29.85 in 10.0 mi NNW 20.7 mph - N/A   Mostly Cloudy
4:53 AM 33.8 °F 23.9 °F 28.4 °F 81% 29.85 in 10.0 mi NNW 15.0 mph 20.7 mph N/A   Scattered Clouds
5:12 AM 33.8 °F 23.5 °F 28.4 °F 81% 29.85 in 10.0 mi NNW 16.1 mph - N/A   Scattered Clouds
5:32 AM 33.8 °F 22.5 °F 28.4 °F 81% 29.85 in 10.0 mi NNW 19.6 mph 24.2 mph N/A   Overcast
5:53 AM 33.8 °F 23.2 °F 28.4 °F 81% 29.85 in 10.0 mi NNW 17.3 mph 28.8 mph N/A   Overcast
6:12 AM 33.8 °F 22.5 °F 28.4 °F 81% 29.85 in 10.0 mi NNW 19.6 mph 25.3 mph N/A   Overcast
6:32 AM 32.0 °F 20.8 °F 28.4 °F 87% 29.86 in 10.0 mi NNW 17.3 mph - N/A   Overcast
6:53 AM 32.0 °F 20.8 °F 28.4 °F 87% 29.87 in 10.0 mi North 17.3 mph - N/A   Overcast
7:12 AM 32.0 °F 20.5 °F 28.4 °F 87% 29.87 in 10.0 mi North 18.4 mph 26.5 mph N/A   Overcast
7:32 AM 32.0 °F 20.1 °F 28.4 °F 87% 29.88 in 10.0 mi North 19.6 mph 25.3 mph N/A   Overcast
7:53 AM 32.0 °F 18.9 °F 28.4 °F 87% 29.89 in 10.0 mi North 24.2 mph 28.8 mph N/A   Overcast
8:12 AM 30.2 °F 18.5 °F 26.6 °F 86% 29.90 in 10.0 mi North 17.3 mph 28.8 mph N/A   Overcast
8:32 AM 30.2 °F 16.5 °F 26.6 °F 86% 29.91 in 10.0 mi North 24.2 mph 29.9 mph N/A   Overcast
8:53 AM 30.2 °F 14.9 °F 26.6 °F 86% 29.92 in 10.0 mi North 31.1 mph 39.1 mph N/A   Overcast
9:12 AM 30.2 °F 17.8 °F 26.6 °F 86% 29.92 in 10.0 mi North 19.6 mph 29.9 mph N/A   Overcast
9:53 AM 30.2 °F 16.5 °F 26.6 °F 86% 29.95 in 10.0 mi North 24.2 mph 32.2 mph N/A   Scattered Clouds
10:12 AM 30.2 °F 15.9 °F 23.0 °F 75% 29.96 in 10.0 mi North 26.5 mph 36.8 mph N/A   Clear
10:33 AM 30.2 °F 16.2 °F 21.2 °F 69% 29.96 in 10.0 mi North 25.3 mph 34.5 mph N/A   Clear
10:52 AM 30.2 °F 16.8 °F 19.4 °F 64% 29.97 in 10.0 mi North 23.0 mph 35.7 mph N/A   Clear
11:12 AM 30.2 °F 15.9 °F 19.4 °F 64% 29.98 in 10.0 mi North 26.5 mph 32.2 mph N/A   Clear
11:33 AM 28.4 °F 14.1 °F 19.4 °F 69% 29.99 in 10.0 mi North 24.2 mph 32.2 mph N/A   Clear
11:52 AM 30.2 °F 16.2 °F 21.2 °F 69% 29.99 in 10.0 mi North 25.3 mph 32.2 mph N/A   Clear
12:13 PM 28.4 °F 13.0 °F 17.6 °F 64% 30.00 in 10.0 mi North 28.8 mph 34.5 mph N/A   Clear
12:32 PM 30.2 °F 16.8 °F 19.4 °F 64% 30.00 in 10.0 mi North 23.0 mph 26.5 mph N/A   Clear
12:52 PM 30.2 °F 16.5 °F 19.4 °F 64% 30.01 in 10.0 mi North 24.2 mph 31.1 mph N/A   Scattered Clouds
1:13 PM 30.2 °F 17.4 °F 21.2 °F 69% 30.01 in 10.0 mi North 20.7 mph 29.9 mph N/A   Scattered Clouds
1:32 PM 28.4 °F 14.1 °F 19.4 °F 69% 30.02 in 10.0 mi North 24.2 mph 32.2 mph N/A   Scattered Clouds
1:52 PM 28.4 °F 13.3 °F 19.4 °F 69% 30.02 in 10.0 mi North 27.6 mph 33.4 mph N/A   Scattered Clouds
2:13 PM 28.4 °F - 19.4 °F 69% 30.02 in 10.0 mi North - - N/A   Scattered Clouds
2:32 PM 28.4 °F 13.8 °F 19.4 °F 69% 30.03 in 10.0 mi North 25.3 mph 34.5 mph N/A   Clear
2:53 PM 28.4 °F 14.1 °F 19.4 °F 69% 30.03 in 10.0 mi North 24.2 mph 31.1 mph N/A   Unknown
3:12 PM 28.4 °F 14.4 °F 19.4 °F 69% 30.03 in 10.0 mi North 23.0 mph 34.5 mph N/A   Scattered Clouds
3:33 PM 28.4 °F 14.4 °F 19.4 °F 69% 30.03 in 10.0 mi North 23.0 mph 31.1 mph N/A   Scattered Clouds
3:52 PM 28.4 °F 14.1 °F 19.4 °F 69% 30.04 in 10.0 mi North 24.2 mph 33.4 mph N/A   Scattered Clouds
4:12 PM 28.4 °F 14.7 °F 19.4 °F 69% 30.04 in 10.0 mi North 21.9 mph 29.9 mph N/A   Scattered Clouds
4:33 PM 28.4 °F 14.1 °F 19.4 °F 69% 30.05 in 10.0 mi North 24.2 mph 27.6 mph N/A   Clear
4:52 PM 28.4 °F 16.2 °F 19.4 °F 69% 30.05 in 10.0 mi North 17.3 mph 27.6 mph N/A   Clear
5:13 PM 26.6 °F 11.4 °F 17.6 °F 69% 30.06 in 10.0 mi North 25.3 mph 29.9 mph N/A   Clear
5:33 PM 26.6 °F 11.7 °F 17.6 °F 69% 30.06 in 10.0 mi North 24.2 mph 29.9 mph N/A   Clear
5:52 PM 26.6 °F 12.4 °F 17.6 °F 69% 30.07 in 10.0 mi North 21.9 mph 28.8 mph N/A   Scattered Clouds
6:13 PM 26.6 °F 11.7 °F 17.6 °F 69% 30.08 in 10.0 mi North 24.2 mph 29.9 mph N/A   Scattered Clouds
6:33 PM 24.8 °F 11.9 °F 17.6 °F 74% 30.09 in 10.0 mi North 16.1 mph 27.6 mph N/A   Scattered Clouds
6:52 PM 24.8 °F 9.3 °F 15.8 °F 69% 30.10 in 10.0 mi North 24.2 mph 29.9 mph N/A   Clear
7:13 PM 24.8 °F 10.3 °F 17.6 °F 74% 30.10 in 10.0 mi North 20.7 mph 27.6 mph N/A   Scattered Clouds
7:33 PM 23.0 °F 7.6 °F 15.8 °F 74% 30.10 in 10.0 mi North 21.9 mph 27.6 mph N/A   Mostly Cloudy
7:52 PM 23.0 °F 8.3 °F 15.8 °F 74% 30.11 in 10.0 mi North 19.6 mph 26.5 mph N/A   Mostly Cloudy
8:13 PM 21.2 °F 5.2 °F 15.8 °F 80% 30.12 in 10.0 mi North 21.9 mph 28.8 mph N/A   Scattered Clouds
8:32 PM 21.2 °F 5.6 °F 15.8 °F 80% 30.13 in - North 20.7 mph 25.3 mph N/A   Scattered Clouds
8:52 PM 21.2 °F 6.8 °F 15.8 °F 80% 30.13 in 10.0 mi North 17.3 mph 21.9 mph N/A   Clear
9:13 PM 21.2 °F 7.8 °F 15.8 °F 80% 30.14 in 10.0 mi North 15.0 mph 25.3 mph N/A   Clear
9:32 PM 21.2 °F 8.3 °F 15.8 °F 80% 30.15 in 10.0 mi North 13.8 mph 19.6 mph N/A   Clear
9:52 PM 21.2 °F 7.3 °F 15.8 °F 80% 30.16 in 10.0 mi North 16.1 mph 19.6 mph N/A   Clear
10:13 PM 21.2 °F 7.3 °F 15.8 °F 80% 30.17 in 10.0 mi North 16.1 mph 19.6 mph N/A   Clear
10:32 PM 21.2 °F 6.4 °F 15.8 °F 80% 30.17 in 10.0 mi North 18.4 mph 21.9 mph N/A   Clear
10:53 PM 19.4 °F 5.5 °F 15.8 °F 86% 30.17 in 10.0 mi North 15.0 mph 20.7 mph N/A   Clear
11:13 PM 19.4 °F 7.9 °F 15.8 °F 86% 30.18 in 10.0 mi North 10.4 mph 18.4 mph N/A   Clear
11:32 PM 19.4 °F 6.0 °F 15.8 °F 86% 30.18 in 10.0 mi North 13.8 mph 19.6 mph N/A   Clear
11:53 PM 19.4 °F 6.6 °F 14.0 °F 80% 30.19 in 10.0 mi North 12.7 mph 18.4 mph N/A   Clear